Eurobird 1

operational
NORAD ID: 26719 Int'l Des: 2001-011 Owner: EUTEL Country: I-EUT
HEOCIRCULAR

Eurobird 1について

説明を読み込み中...

リアルタイム位置

3D地球を読み込み中...

次回通過

高度履歴

Altitude vs Time

uPlot chart will show altitude changes over time

軌道要素

1 26719U 01011A 26062.46820145 -.00000205 00000-0 00000+0 0 9991
2 26719 7.1164 68.5547 0008803 280.5467 104.6113 0.98792443 91341
Epoch: Mar 3, 2026 • Age: 26 hours

現在のステータス

高度 36177.6 km
速度 3.06 km/s
衛星直下点 -6.28°S, 120.44°E
打ち上げ日 Mar 8, 2001
運用期間 24.9 years
タイプ other

技術仕様

分類 Payload
質量 3050.00 kg
乾燥質量 1300.00 kg
総質量 3050.00 kg
長さ 3.50 m
直径 2.30 m
スパン 29.00 m
形状 Box + 2 Pan
製造者 ALC
バスタイプ Spacebus 3000B2
フェーズステータス Renamed
所有者/国 EUTEL/I-EUT

大規模コンステレーション

Loading constellations...